Location: Newark
(39.5667°N, 8.9833°E)
Time: 14:07:03
(UTC+00:00)

Altair - All Passes

Search period start: 20 October 2019 00:00
Search period end: 30 October 2019 00:00
Orbit: 1501 x 1682 km, 47.2° (Epoch: 20 October)

Date Brightness Start Highest point End Pass type
(mag) Time Alt. Az. Time Alt. Az. Time Alt. Az.
20 Oct - 08:21:15 10° S 08:28:52 29° SE 08:36:41 10° ENE daylight
20 Oct - 10:23:09 10° SW 10:32:38 84° SSE 10:42:33 10° ENE daylight
20 Oct - 12:28:35 10° W 12:38:06 58° N 12:48:00 10° ENE daylight
20 Oct - 14:34:26 10° WNW 14:44:15 63° NNE 14:54:20 10° E daylight
20 Oct - 16:39:30 10° WNW 16:49:26 69° SW 16:59:30 10° SE daylight
20 Oct - 18:46:05 10° W 18:53:01 21° SW 18:59:58 10° S visible
21 Oct - 07:56:34 10° S 08:03:49 26° SE 08:11:14 10° ENE daylight
21 Oct - 09:58:02 10° SW 10:07:27 80° SSE 10:17:19 10° ENE daylight
21 Oct - 12:03:19 10° W 12:12:49 59° N 12:22:42 10° ENE daylight
21 Oct - 14:09:12 10° WNW 14:18:58 62° NNE 14:29:00 10° E daylight
21 Oct - 16:14:18 10° WNW 16:24:15 73° SW 16:34:22 10° SE daylight
21 Oct - 18:20:33 10° WNW 18:27:56 24° SW 18:35:23 10° S visible
22 Oct - 07:31:57 10° S 07:38:47 23° SE 07:45:46 10° E daylight
22 Oct - 09:32:56 10° SW 09:42:17 75° SE 09:52:04 10° ENE daylight
22 Oct - 11:38:03 10° W 11:47:31 60° NNW 11:57:24 10° ENE daylight
22 Oct - 13:43:59 10° WNW 13:53:41 60° NNE 14:03:40 10° E daylight
22 Oct - 15:49:05 10° WNW 15:59:04 78° SW 16:09:13 10° SE daylight
22 Oct - 17:55:05 10° WNW 18:02:52 26° SW 18:10:43 10° S visible
23 Oct - 07:07:24 10° S 07:13:45 21° SE 07:20:14 10° E daylight
23 Oct - 09:07:52 10° SW 09:17:09 70° SE 09:26:50 10° ENE daylight
23 Oct - 11:12:48 10° W 11:22:15 62° NNW 11:32:07 10° ENE daylight
23 Oct - 13:18:45 10° WNW 13:28:23 59° N 13:38:20 10° E daylight
23 Oct - 15:23:53 10° WNW 15:33:52 82° SSW 15:44:02 10° SE daylight
23 Oct - 17:29:40 10° WNW 17:37:48 29° SW 17:45:59 10° S visible
24 Oct - 06:42:57 10° SSE 06:48:44 18° SE 06:54:37 10° E daylight
24 Oct - 08:42:49 10° SW 08:52:00 66° SE 09:01:35 10° ENE daylight
24 Oct - 10:47:33 10° W 10:56:59 63° NNW 11:06:50 10° ENE daylight
24 Oct - 12:53:31 10° WNW 13:03:06 57° N 13:13:00 10° E daylight
24 Oct - 14:58:42 10° WNW 15:08:39 86° SSW 15:18:51 10° SE daylight
24 Oct - 17:04:17 10° WNW 17:12:42 32° SW 17:21:12 10° S visible
25 Oct - 06:18:36 10° SSE 06:23:43 16° ESE 06:28:54 10° E daylight
25 Oct - 08:17:47 10° SW 08:26:53 61° SE 08:36:20 10° ENE daylight
25 Oct - 10:22:19 10° W 10:31:44 66° NNW 10:41:34 10° ENE daylight
25 Oct - 12:28:17 10° WNW 12:37:48 57° N 12:47:40 10° E daylight
25 Oct - 14:33:31 10° WNW 14:43:27 90° NNE 14:53:38 10° ESE daylight
25 Oct - 16:38:56 10° WNW 16:47:36 35° SW 16:56:23 10° SSE visible
26 Oct - 05:54:27 10° SSE 05:58:43 14° ESE 06:03:02 10° E daylight
26 Oct - 07:52:47 10° SW 08:01:46 57° SE 08:11:06 10° ENE daylight
26 Oct - 09:57:05 10° WSW 10:06:30 68° NNW 10:16:18 10° ENE daylight
26 Oct - 12:03:02 10° WNW 12:12:30 56° N 12:22:19 10° E daylight
26 Oct - 14:08:19 10° WNW 14:18:13 86° NNE 14:28:24 10° ESE daylight
26 Oct - 16:13:37 10° WNW 16:22:29 38° SW 16:31:30 10° SSE daylight
27 Oct - 05:30:38 10° SE 05:33:43 12° ESE 05:36:49 10° E daylight
27 Oct - 07:27:48 10° SSW 07:36:40 52° SE 07:45:50 10° ENE daylight
27 Oct - 09:31:52 10° WSW 09:41:16 70° NNW 09:51:04 10° ENE daylight
27 Oct - 11:37:48 10° WNW 11:47:12 55° N 11:56:59 10° E daylight
27 Oct - 13:43:08 10° WNW 13:53:00 82° NNE 14:03:10 10° ESE daylight
27 Oct - 15:48:19 10° WNW 15:57:22 41° SW 16:06:35 10° SSE daylight
28 Oct - 05:08:18 10° ESE 05:08:43 10° ESE 05:09:09 10° ESE visible
28 Oct - 07:02:51 10° SSW 07:11:34 48° SE 07:20:34 10° ENE daylight
28 Oct - 09:06:39 10° WSW 09:16:02 73° NNW 09:25:49 10° ENE daylight
28 Oct - 11:12:33 10° WNW 11:21:55 55° N 11:31:38 10° ENE daylight
28 Oct - 13:17:56 10° WNW 13:27:45 78° NNE 13:37:53 10° ESE daylight
28 Oct - 15:23:03 10° WNW 15:32:15 45° SW 15:41:38 10° SSE daylight
29 Oct - 06:37:56 10° SSW 06:46:29 44° SE 06:55:17 10° ENE daylight
29 Oct - 08:41:27 10° WSW 08:50:49 77° NNW 09:00:34 10° ENE daylight
29 Oct - 10:47:18 10° WNW 10:56:37 55° N 11:06:19 10° ENE daylight
29 Oct - 12:52:45 10° WNW 13:02:32 75° NNE 13:12:37 10° ESE daylight
29 Oct - 14:57:48 10° WNW 15:07:07 48° SW 15:16:39 10° SSE daylight
29 Oct - 17:07:52 10° WSW 17:10:13 11° WSW 17:12:35 10° SW visible
